QPF
0.01 0.02 0.04 0.06 0.04 0.02 0.00 0.00 0.00 0.00 0.00 0.00 0.00 0.00 0.00 0.00 0.00 0.00 0.00 0.00 0.00 0.00 0.00 0.01 0.02 0.03 0.03 0.03 0.02 0.01 0.01 0.01 0.01 0.01 0.01 0.01 0.01 0.01 0.01 0.01 0.02 0.02 0.02 0.03 0.04 0.03 0.02 0.02 0.02
0.02 0.02 0.04 0.07 0.04 0.02 0.00 0.00 0.00 0.00 0.00 0.00 0.00 0.00 0.00 0.00 0.00 0.00 0.00 0.00 0.00 0.00 0.01 0.01 0.02 0.03 0.04 0.03 0.02 0.02 0.01 0.01 0.02 0.02 0.01 0.01 0.01 0.01 0.01 0.01 0.01 0.02 0.02 0.02 0.03 0.03 0.03 0.04 0.03
0.03 0.04 0.05 0.07 0.05 0.02 0.01 0.00 0.00 0.00 0.00 0.00 0.00 0.00 0.00 0.00 0.00 0.00 0.00 0.00 0.00 0.01 0.01 0.02 0.03 0.03 0.04 0.04 0.03 0.03 0.02 0.02 0.02 0.02 0.02 0.02 0.02 0.02 0.01 0.01 0.01 0.01 0.02 0.02 0.02 0.02 0.03 0.03 0.02
0.05 0.06 0.06 0.05 0.03 0.01 0.01 0.00 0.00 0.00 0.00 0.00 0.00 0.00 0.00 0.00 0.00 0.00 0.00 0.00 0.01 0.01 0.01 0.02 0.03 0.04 0.05 0.05 0.05 0.03 0.02 0.02 0.02 0.02 0.02 0.02 0.02 0.02 0.02 0.02 0.01 0.01 0.01 0.01 0.02 0.02 0.02 0.02 0.02
0.07 0.08 0.07 0.05 0.02 0.01 0.00 0.00 0.00 0.00 0.00 0.00 0.00 0.00 0.01 0.00 0.00 0.00 0.00 0.00 0.01 0.01 0.02 0.02 0.03 0.04 0.05 0.06 0.05 0.04 0.03 0.03 0.03 0.02 0.03 0.03 0.02 0.02 0.01 0.01 0.01 0.01 0.01 0.01 0.02 0.02 0.02 0.02 0.01
0.07 0.09 0.07 0.03 0.01 0.00 0.00 0.00 0.00 0.00 0.00 0.00 0.00 0.01 0.01 0.01 0.00 0.01 0.00 0.01 0.01 0.02 0.03 0.03 0.04 0.05 0.06 0.06 0.05 0.04 0.03 0.03 0.03 0.03 0.03 0.03 0.03 0.02 0.02 0.01 0.01 0.01 0.02 0.02 0.02 0.02 0.02 0.02 0.01
0.07 0.09 0.07 0.03 0.01 0.00 0.00 0.00 0.00 0.00 0.00 0.00 0.00 0.01 0.01 0.01 0.01 0.01 0.01 0.01 0.02 0.04 0.04 0.03 0.04 0.06 0.07 0.07 0.07 0.06 0.05 0.04 0.03 0.04 0.04 0.04 0.04 0.03 0.03 0.02 0.02 0.02 0.02 0.02 0.01 0.02 0.02 0.02 0.02
0.07 0.08 0.07 0.04 0.01 0.00 0.00 0.00 0.00 0.00 0.00 0.00 0.01 0.01 0.02 0.03 0.02 0.02 0.02 0.02 0.04 0.06 0.07 0.04 0.04 0.06 0.07 0.08 0.09 0.11 0.11 0.07 0.04 0.04 0.04 0.04 0.05 0.05 0.04 0.04 0.04 0.03 0.02 0.01 0.01 0.01 0.02 0.02 0.02
0.07 0.09 0.06 0.04 0.02 0.01 0.00 0.00 0.00 0.00 0.00 0.01 0.01 0.01 0.01 0.02 0.02 0.03 0.03 0.02 0.04 0.07 0.09 0.08 0.05 0.05 0.07 0.08 0.11 0.15 0.17 0.15 0.08 0.05 0.05 0.06 0.06 0.06 0.06 0.05 0.04 0.04 0.03 0.02 0.01 0.01 0.01 0.02 0.02
0.08 0.09 0.06 0.05 0.04 0.02 0.01 0.01 0.00 0.00 0.00 0.01 0.00 0.01 0.01 0.02 0.03 0.03 0.03 0.03 0.03 0.06 0.10 0.10 0.09 0.06 0.06 0.08 0.10 0.13 0.20 0.21 0.16 0.09 0.06 0.06 0.08 0.08 0.07 0.07 0.05 0.04 0.03 0.02 0.01 0.01 0.01 0.01 0.01
0.05 0.04 0.04 0.05 0.04 0.02 0.01 0.01 0.00 0.01 0.01 0.00 0.01 0.01 0.02 0.03 0.03 0.03 0.03 0.03 0.03 0.05 0.09 0.11 0.11 0.08 0.07 0.08 0.09 0.10 0.16 0.24 0.22 0.14 0.08 0.06 0.07 0.10 0.11 0.09 0.07 0.06 0.05 0.03 0.02 0.02 0.01 0.01 0.01
0.03 0.02 0.04 0.05 0.04 0.02 0.02 0.01 0.01 0.01 0.00 0.00 0.01 0.01 0.02 0.02 0.02 0.02 0.02 0.03 0.04 0.05 0.09 0.11 0.10 0.10 0.08 0.10 0.11 0.10 0.11 0.20 0.24 0.20 0.15 0.09 0.07 0.09 0.11 0.12 0.09 0.06 0.04 0.03 0.02 0.01 0.01 0.00 0.01
0.02 0.02 0.03 0.04 0.04 0.03 0.02 0.02 0.01 0.01 0.01 0.01 0.02 0.02 0.02 0.02 0.02 0.02 0.02 0.03 0.05 0.06 0.09 0.12 0.10 0.11 0.10 0.11 0.12 0.12 0.12 0.14 0.20 0.21 0.19 0.13 0.11 0.11 0.12 0.14 0.12 0.08 0.05 0.03 0.02 0.01 0.01 0.01 0.01
0.01 0.02 0.03 0.04 0.05 0.04 0.03 0.02 0.02 0.01 0.02 0.03 0.02 0.02 0.03 0.03 0.03 0.03 0.02 0.02 0.03 0.06 0.08 0.13 0.14 0.11 0.11 0.11 0.11 0.13 0.17 0.17 0.19 0.21 0.17 0.15 0.13 0.13 0.15 0.15 0.14 0.12 0.09 0.04 0.02 0.02 0.01 0.01 0.01
0.01 0.02 0.03 0.04 0.05 0.05 0.04 0.03 0.02 0.01 0.02 0.04 0.03 0.03 0.04 0.04 0.04 0.04 0.03 0.02 0.02 0.04 0.06 0.11 0.17 0.16 0.13 0.12 0.11 0.12 0.14 0.20 0.19 0.21 0.20 0.18 0.15 0.12 0.13 0.16 0.16 0.13 0.11 0.09 0.05 0.03 0.03 0.02 0.02
0.02 0.02 0.03 0.03 0.05 0.06 0.05 0.04 0.03 0.02 0.02 0.02 0.03 0.03 0.05 0.05 0.04 0.06 0.05 0.03 0.03 0.03 0.05 0.08 0.15 0.17 0.18 0.14 0.11 0.11 0.12 0.17 0.20 0.18 0.18 0.19 0.18 0.16 0.13 0.14 0.18 0.17 0.15 0.12 0.09 0.05 0.04 0.03 0.02
0.02 0.02 0.02 0.03 0.04 0.06 0.07 0.05 0.04 0.03 0.03 0.03 0.03 0.04 0.06 0.08 0.06 0.06 0.06 0.04 0.03 0.03 0.04 0.07 0.11 0.15 0.17 0.17 0.12 0.11 0.11 0.15 0.20 0.19 0.16 0.17 0.20 0.20 0.17 0.15 0.18 0.21 0.21 0.18 0.14 0.08 0.04 0.03 0.03
0.01 0.02 0.02 0.02 0.03 0.05 0.06 0.05 0.04 0.04 0.04 0.03 0.04 0.05 0.05 0.10 0.07 0.05 0.05 0.05 0.03 0.02 0.02 0.05 0.08 0.13 0.15 0.17 0.15 0.12 0.12 0.16 0.18 0.18 0.16 0.16 0.18 0.19 0.17 0.14 0.14 0.20 0.24 0.24 0.22 0.15 0.07 0.05 0.05
0.01 0.01 0.01 0.02 0.02 0.04 0.04 0.04 0.04 0.03 0.04 0.05 0.05 0.07 0.06 0.10 0.09 0.07 0.07 0.06 0.04 0.03 0.02 0.03 0.06 0.10 0.12 0.14 0.12 0.11 0.12 0.16 0.19 0.16 0.14 0.15 0.15 0.16 0.15 0.12 0.10 0.12 0.17 0.21 0.21 0.19 0.15 0.09 0.07
0.01 0.01 0.01 0.01 0.02 0.04 0.04 0.04 0.03 0.02 0.03 0.05 0.06 0.07 0.07 0.11 0.12 0.09 0.09 0.07 0.06 0.05 0.03 0.03 0.06 0.10 0.10 0.10 0.10 0.09 0.10 0.14 0.14 0.14 0.16 0.15 0.14 0.13 0.13 0.12 0.10 0.09 0.09 0.14 0.19 0.19 0.17 0.14 0.10
0.01 0.01 0.01 0.01 0.02 0.04 0.04 0.04 0.02 0.02 0.02 0.04 0.06 0.07 0.09 0.10 0.13 0.10 0.08 0.07 0.08 0.06 0.04 0.03 0.05 0.09 0.10 0.09 0.10 0.08 0.08 0.12 0.15 0.08 0.09 0.12 0.13 0.13 0.11 0.11 0.11 0.08 0.07 0.07 0.11 0.16 0.17 0.15 0.12
0.02 0.01 0.01 0.01 0.02 0.05 0.05 0.05 0.02 0.01 0.02 0.03 0.04 0.06 0.09 0.09 0.12 0.13 0.08 0.07 0.07 0.07 0.05 0.04 0.05 0.08 0.10 0.11 0.09 0.08 0.06 0.08 0.12 0.08 0.05 0.06 0.09 0.12 0.13 0.11 0.10 0.10 0.08 0.06 0.07 0.10 0.13 0.14 0.13
0.02 0.01 0.01 0.01 0.02 0.04 0.04 0.04 0.02 0.01 0.02 0.02 0.04 0.05 0.07 0.08 0.11 0.13 0.10 0.06 0.05 0.07 0.07 0.05 0.05 0.06 0.09 0.11 0.11 0.08 0.06 0.07 0.09 0.08 0.06 0.06 0.07 0.09 0.11 0.13 0.13 0.12 0.10 0.07 0.05 0.07 0.10 0.12 0.11
0.01 0.01 0.02 0.01 0.02 0.04 0.03 0.03 0.02 0.02 0.02 0.03 0.04 0.06 0.06 0.07 0.10 0.12 0.11 0.05 0.03 0.06 0.06 0.08 0.06 0.05 0.06 0.09 0.12 0.12 0.10 0.08 0.09 0.09 0.06 0.07 0.08 0.08 0.08 0.10 0.12 0.13 0.12 0.10 0.06 0.05 0.07 0.09 0.11
0.01 0.02 0.03 0.03 0.02 0.02 0.03 0.02 0.02 0.02 0.02 0.04 0.05 0.05 0.04 0.06 0.09 0.11 0.09 0.05 0.03 0.05 0.06 0.07 0.08 0.06 0.05 0.05 0.08 0.10 0.10 0.10 0.09 0.09 0.07 0.07 0.08 0.09 0.09 0.09 0.09 0.10 0.11 0.10 0.07 0.04 0.04 0.05 0.08
0.02 0.02 0.03 0.03 0.02 0.02 0.02 0.02 0.02 0.02 0.02 0.02 0.04 0.04 0.03 0.03 0.08 0.11 0.08 0.05 0.04 0.04 0.06 0.06 0.07 0.08 0.06 0.04 0.05 0.07 0.08 0.08 0.08 0.08 0.07 0.06 0.06 0.08 0.09 0.10 0.10 0.10 0.10 0.10 0.07 0.04 0.04 0.04 0.05
0.01 0.02 0.02 0.03 0.03 0.03 0.03 0.02 0.01 0.01 0.01 0.01 0.03 0.03 0.04 0.05 0.07 0.09 0.07 0.05 0.04 0.04 0.06 0.07 0.08 0.08 0.08 0.06 0.04 0.05 0.06 0.07 0.07 0.07 0.08 0.08 0.08 0.09 0.10 0.11 0.11 0.11 0.10 0.10 0.08 0.06 0.05 0.05 0.05
0.01 0.02 0.02 0.03 0.03 0.02 0.02 0.02 0.02 0.02 0.02 0.02 0.03 0.04 0.04 0.06 0.07 0.08 0.08 0.06 0.05 0.05 0.06 0.07 0.10 0.11 0.11 0.10 0.08 0.06 0.06 0.07 0.07 0.08 0.09 0.09 0.10 0.11 0.12 0.12 0.12 0.12 0.11 0.09 0.08 0.07 0.06 0.05 0.05
0.01 0.01 0.02 0.02 0.03 0.03 0.03 0.03 0.03 0.03 0.04 0.04 0.04 0.05 0.05 0.06 0.06 0.08 0.07 0.06 0.06 0.05 0.05 0.07 0.09 0.12 0.13 0.11 0.10 0.09 0.09 0.09 0.08 0.07 0.07 0.08 0.08 0.09 0.11 0.12 0.11 0.11 0.11 0.11 0.10 0.07 0.06 0.05 0.04
0.01 0.01 0.02 0.03 0.02 0.02 0.03 0.03 0.02 0.02 0.04 0.04 0.03 0.04 0.06 0.06 0.05 0.06 0.06 0.05 0.06 0.07 0.06 0.07 0.08 0.09 0.10 0.10 0.10 0.10 0.10 0.10 0.10 0.09 0.07 0.06 0.06 0.07 0.09 0.11 0.11 0.10 0.11 0.11 0.11 0.09 0.07 0.05 0.04
MSLP
1012.75 1013.25 1014.05 1015.02 1016.04 1016.97 1017.72 1018.21 1018.43 1018.39 1018.17 1017.84 1017.49 1017.17 1016.92 1016.74 1016.61 1016.50 1016.38 1016.24 1016.08 1015.92 1015.79 1015.72 1015.73 1015.83 1016.01 1016.22 1016.44 1016.63 1016.78 1016.86 1016.89 1016.89 1016.88 1016.89 1016.93 1016.99 1017.06 1017.12 1017.18 1017.20 1017.21 1017.20 1017.19 1017.19 1017.20 1017.23 1017.25
1013.23 1013.91 1014.83 1015.87 1016.87 1017.70 1018.28 1018.55 1018.52 1018.25 1017.82 1017.33 1016.88 1016.51 1016.26 1016.11 1016.04 1016.00 1015.95 1015.88 1015.78 1015.68 1015.59 1015.55 1015.59 1015.70 1015.87 1016.09 1016.32 1016.54 1016.71 1016.84 1016.93 1016.98 1017.03 1017.07 1017.12 1017.17 1017.23 1017.27 1017.28 1017.28 1017.27 1017.25 1017.24 1017.25 1017.28 1017.32 1017.37
1013.85 1014.66 1015.65 1016.68 1017.59 1018.27 1018.64 1018.68 1018.42 1017.94 1017.35 1016.76 1016.25 1015.87 1015.64 1015.54 1015.52 1015.55 1015.57 1015.57 1015.54 1015.49 1015.45 1015.45 1015.51 1015.63 1015.81 1016.03 1016.25 1016.46 1016.65 1016.79 1016.90 1016.99 1017.06 1017.12 1017.18 1017.23 1017.27 1017.29 1017.29 1017.28 1017.26 1017.25 1017.26 1017.29 1017.35 1017.42 1017.50
1014.56 1015.46 1016.46 1017.41 1018.19 1018.67 1018.82 1018.64 1018.18 1017.55 1016.86 1016.22 1015.71 1015.35 1015.17 1015.12 1015.16 1015.24 1015.32 1015.37 1015.39 1015.40 1015.41 1015.45 1015.54 1015.67 1015.84 1016.03 1016.23 1016.41 1016.57 1016.70 1016.81 1016.91 1016.99 1017.07 1017.13 1017.18 1017.22 1017.23 1017.23 1017.23 1017.23 1017.24 1017.28 1017.36 1017.45 1017.56 1017.67
1015.32 1016.24 1017.19 1018.02 1018.62 1018.90 1018.84 1018.48 1017.88 1017.17 1016.44 1015.82 1015.34 1015.04 1014.92 1014.92 1015.01 1015.12 1015.23 1015.31 1015.37 1015.42 1015.47 1015.55 1015.65 1015.78 1015.93 1016.09 1016.24 1016.37 1016.49 1016.59 1016.68 1016.76 1016.85 1016.93 1017.01 1017.07 1017.12 1017.15 1017.16 1017.19 1017.22 1017.27 1017.35 1017.46 1017.59 1017.73 1017.87
1016.03 1016.93 1017.78 1018.46 1018.88 1018.97 1018.74 1018.25 1017.58 1016.85 1016.16 1015.59 1015.19 1014.97 1014.90 1014.94 1015.04 1015.16 1015.27 1015.36 1015.43 1015.50 1015.58 1015.68 1015.80 1015.93 1016.05 1016.17 1016.26 1016.33 1016.40 1016.45 1016.52 1016.59 1016.68 1016.78 1016.88 1016.96 1017.03 1017.09 1017.14 1017.19 1017.26 1017.35 1017.47 1017.61 1017.77 1017.93 1018.08
1016.64 1017.47 1018.20 1018.71 1018.95 1018.89 1018.54 1017.99 1017.31 1016.63 1016.02 1015.55 1015.24 1015.09 1015.07 1015.12 1015.21 1015.30 1015.37 1015.44 1015.50 1015.57 1015.66 1015.78 1015.90 1016.02 1016.12 1016.20 1016.24 1016.27 1016.28 1016.31 1016.36 1016.44 1016.54 1016.66 1016.79 1016.91 1017.01 1017.09 1017.17 1017.25 1017.35 1017.47 1017.61 1017.77 1017.94 1018.10 1018.25
1017.11 1017.83 1018.42 1018.78 1018.87 1018.68 1018.27 1017.71 1017.08 1016.48 1015.98 1015.62 1015.41 1015.32 1015.31 1015.34 1015.38 1015.41 1015.42 1015.44 1015.46 1015.52 1015.61 1015.72 1015.85 1015.97 1016.06 1016.12 1016.13 1016.13 1016.13 1016.15 1016.21 1016.31 1016.44 1016.60 1016.76 1016.92 1017.05 1017.16 1017.25 1017.35 1017.45 1017.58 1017.72 1017.88 1018.05 1018.20 1018.34
1017.44 1018.03 1018.47 1018.68 1018.65 1018.39 1017.95 1017.41 1016.85 1016.36 1015.97 1015.72 1015.58 1015.52 1015.51 1015.49 1015.46 1015.41 1015.34 1015.28 1015.25 1015.27 1015.35 1015.46 1015.60 1015.72 1015.81 1015.87 1015.89 1015.89 1015.91 1015.96 1016.05 1016.19 1016.37 1016.58 1016.78 1016.96 1017.12 1017.24 1017.33 1017.42 1017.52 1017.64 1017.77 1017.92 1018.06 1018.20 1018.33
1017.66 1018.11 1018.41 1018.49 1018.37 1018.05 1017.61 1017.11 1016.63 1016.23 1015.94 1015.76 1015.66 1015.61 1015.57 1015.49 1015.37 1015.22 1015.06 1014.92 1014.83 1014.81 1014.86 1014.97 1015.10 1015.24 1015.35 1015.43 1015.48 1015.53 1015.59 1015.69 1015.84 1016.04 1016.29 1016.54 1016.79 1017.00 1017.16 1017.28 1017.37 1017.44 1017.52 1017.61 1017.72 1017.85 1017.98 1018.11 1018.21
1017.82 1018.15 1018.31 1018.29 1018.08 1017.73 1017.29 1016.83 1016.41 1016.07 1015.84 1015.70 1015.62 1015.55 1015.46 1015.32 1015.11 1014.87 1014.62 1014.40 1014.24 1014.17 1014.19 1014.28 1014.41 1014.56 1014.70 1014.81 1014.92 1015.02 1015.15 1015.33 1015.55 1015.83 1016.13 1016.44 1016.72 1016.95 1017.12 1017.24 1017.31 1017.36 1017.42 1017.49 1017.58 1017.70 1017.82 1017.94 1018.04
1018.02 1018.22 1018.27 1018.15 1017.88 1017.49 1017.04 1016.59 1016.20 1015.89 1015.68 1015.55 1015.46 1015.36 1015.22 1015.02 1014.75 1014.43 1014.10 1013.81 1013.59 1013.46 1013.43 1013.49 1013.61 1013.76 1013.92 1014.08 1014.24 1014.41 1014.61 1014.86 1015.17 1015.51 1015.87 1016.22 1016.53 1016.78 1016.96 1017.07 1017.14 1017.18 1017.22 1017.29 1017.38 1017.49 1017.62 1017.74 1017.85
1018.29 1018.39 1018.35 1018.15 1017.82 1017.39 1016.92 1016.45 1016.05 1015.74 1015.51 1015.36 1015.25 1015.12 1014.95 1014.71 1014.40 1014.03 1013.65 1013.29 1013.01 1012.81 1012.72 1012.73 1012.81 1012.95 1013.12 1013.30 1013.51 1013.74 1014.01 1014.32 1014.68 1015.07 1015.47 1015.85 1016.18 1016.45 1016.64 1016.77 1016.85 1016.90 1016.96 1017.04 1017.14 1017.27 1017.42 1017.56 1017.68
1018.68 1018.70 1018.59 1018.33 1017.94 1017.47 1016.95 1016.45 1016.01 1015.66 1015.40 1015.22 1015.08 1014.94 1014.76 1014.52 1014.20 1013.82 1013.40 1013.00 1012.65 1012.38 1012.20 1012.14 1012.16 1012.26 1012.41 1012.60 1012.84 1013.10 1013.41 1013.75 1014.14 1014.55 1014.96 1015.35 1015.70 1015.98 1016.20 1016.36 1016.47 1016.56 1016.66 1016.78 1016.92 1017.08 1017.25 1017.41 1017.54
1019.15 1019.13 1018.96 1018.66 1018.23 1017.71 1017.15 1016.59 1016.09 1015.69 1015.39 1015.18 1015.03 1014.90 1014.75 1014.54 1014.25 1013.88 1013.46 1013.02 1012.60 1012.24 1011.97 1011.80 1011.74 1011.77 1011.89 1012.06 1012.29 1012.56 1012.88 1013.22 1013.60 1013.99 1014.39 1014.77 1015.11 1015.41 1015.66 1015.86 1016.04 1016.19 1016.35 1016.53 1016.72 1016.92 1017.11 1017.28 1017.42
1019.65 1019.60 1019.42 1019.09 1018.64 1018.08 1017.48 1016.87 1016.31 1015.85 1015.51 1015.28 1015.14 1015.05 1014.96 1014.81 1014.58 1014.25 1013.83 1013.35 1012.87 1012.41 1012.03 1011.75 1011.59 1011.54 1011.60 1011.74 1011.94 1012.19 1012.48 1012.79 1013.12 1013.47 1013.82 1014.16 1014.49 1014.80 1015.08 1015.34 1015.58 1015.81 1016.04 1016.28 1016.52 1016.75 1016.97 1017.14 1017.27
1020.10 1020.06 1019.88 1019.56 1019.10 1018.53 1017.89 1017.23 1016.62 1016.11 1015.74 1015.51 1015.39 1015.36 1015.34 1015.28 1015.12 1014.85 1014.45 1013.95 1013.40 1012.85 1012.35 1011.96 1011.69 1011.56 1011.55 1011.64 1011.80 1012.01 1012.25 1012.50 1012.76 1013.02 1013.30 1013.58 1013.87 1014.18 1014.48 1014.80 1015.11 1015.41 1015.72 1016.01 1016.29 1016.55 1016.77 1016.94 1017.05
1020.43 1020.41 1020.27 1019.98 1019.55 1018.98 1018.32 1017.62 1016.96 1016.41 1016.01 1015.78 1015.70 1015.73 1015.80 1015.84 1015.77 1015.56 1015.19 1014.67 1014.07 1013.44 1012.84 1012.34 1011.98 1011.77 1011.69 1011.74 1011.85 1012.01 1012.19 1012.35 1012.52 1012.68 1012.86 1013.06 1013.30 1013.58 1013.90 1014.25 1014.61 1014.98 1015.35 1015.69 1015.99 1016.26 1016.47 1016.63 1016.73
1020.59 1020.63 1020.55 1020.32 1019.93 1019.38 1018.71 1017.99 1017.28 1016.69 1016.26 1016.02 1015.97 1016.06 1016.22 1016.35 1016.38 1016.24 1015.90 1015.39 1014.75 1014.05 1013.38 1012.80 1012.36 1012.09 1011.97 1011.97 1012.04 1012.15 1012.25 1012.33 1012.39 1012.44 1012.50 1012.61 1012.78 1013.01 1013.32 1013.69 1014.09 1014.50 1014.89 1015.26 1015.58 1015.84 1016.04 1016.19 1016.27
1020.61 1020.72 1020.72 1020.57 1020.24 1019.72 1019.05 1018.29 1017.53 1016.88 1016.40 1016.14 1016.10 1016.24 1016.47 1016.69 1016.81 1016.75 1016.46 1015.97 1015.33 1014.60 1013.88 1013.24 1012.76 1012.45 1012.29 1012.26 1012.30 1012.36 1012.40 1012.39 1012.34 1012.26 1012.21 1012.21 1012.29 1012.46 1012.74 1013.09 1013.50 1013.92 1014.33 1014.70 1015.02 1015.28 1015.48 1015.62 1015.71
1020.53 1020.73 1020.83 1020.77 1020.50 1020.01 1019.33 1018.52 1017.70 1016.96 1016.41 1016.10 1016.05 1016.21 1016.49 1016.79 1017.00 1017.02 1016.81 1016.37 1015.75 1015.02 1014.29 1013.64 1013.13 1012.80 1012.62 1012.57 1012.58 1012.59 1012.56 1012.47 1012.31 1012.12 1011.94 1011.83 1011.81 1011.91 1012.13 1012.46 1012.84 1013.25 1013.65 1014.02 1014.33 1014.58 1014.77 1014.93 1015.05
1020.44 1020.75 1020.96 1020.99 1020.77 1020.30 1019.59 1018.71 1017.79 1016.95 1016.30 1015.91 1015.81 1015.97 1016.29 1016.65 1016.95 1017.06 1016.95 1016.58 1016.02 1015.33 1014.62 1013.97 1013.47 1013.12 1012.93 1012.86 1012.83 1012.79 1012.70 1012.52 1012.26 1011.96 1011.68 1011.45 1011.34 1011.35 1011.50 1011.77 1012.12 1012.49 1012.87 1013.21 1013.51 1013.76 1013.98 1014.16 1014.34
1020.45 1020.86 1021.16 1021.27 1021.10 1020.62 1019.86 1018.89 1017.85 1016.88 1016.11 1015.62 1015.46 1015.60 1015.94 1016.36 1016.75 1016.97 1016.96 1016.70 1016.22 1015.60 1014.93 1014.30 1013.80 1013.44 1013.23 1013.12 1013.05 1012.95 1012.79 1012.53 1012.18 1011.79 1011.40 1011.08 1010.86 1010.79 1010.86 1011.06 1011.34 1011.67 1012.01 1012.33 1012.62 1012.87 1013.11 1013.35 1013.59
1020.59 1021.10 1021.50 1021.66 1021.50 1020.99 1020.15 1019.08 1017.91 1016.80 1015.90 1015.31 1015.08 1015.19 1015.55 1016.04 1016.51 1016.84 1016.95 1016.81 1016.43 1015.89 1015.27 1014.67 1014.16 1013.79 1013.53 1013.37 1013.24 1013.08 1012.84 1012.50 1012.08 1011.60 1011.12 1010.71 1010.41 1010.25 1010.23 1010.35 1010.56 1010.83 1011.12 1011.40 1011.68 1011.94 1012.21 1012.49 1012.81
1020.88 1021.48 1021.93 1022.12 1021.95 1021.38 1020.46 1019.27 1017.97 1016.74 1015.72 1015.05 1014.76 1014.86 1015.24 1015.79 1016.35 1016.80 1017.02 1017.00 1016.72 1016.26 1015.69 1015.11 1014.60 1014.18 1013.87 1013.64 1013.43 1013.19 1012.88 1012.47 1011.98 1011.43 1010.88 1010.40 1010.01 1009.77 1009.67 1009.69 1009.82 1010.01 1010.24 1010.48 1010.72 1010.98 1011.27 1011.60 1011.98
1021.29 1021.93 1022.40 1022.58 1022.36 1021.72 1020.71 1019.42 1018.02 1016.69 1015.60 1014.87 1014.56 1014.66 1015.08 1015.69 1016.34 1016.88 1017.22 1017.30 1017.12 1016.72 1016.20 1015.63 1015.09 1014.62 1014.24 1013.93 1013.64 1013.32 1012.94 1012.47 1011.92 1011.32 1010.72 1010.17 1009.72 1009.39 1009.20 1009.12 1009.16 1009.25 1009.40 1009.58 1009.78 1010.03 1010.32 1010.68 1011.10
1021.70 1022.35 1022.79 1022.91 1022.62 1021.90 1020.80 1019.44 1017.98 1016.61 1015.50 1014.77 1014.48 1014.61 1015.08 1015.75 1016.48 1017.11 1017.53 1017.69 1017.58 1017.24 1016.74 1016.16 1015.60 1015.08 1014.63 1014.24 1013.87 1013.48 1013.04 1012.52 1011.93 1011.29 1010.66 1010.06 1009.55 1009.14 1008.85 1008.68 1008.60 1008.59 1008.64 1008.74 1008.88 1009.09 1009.36 1009.72 1010.16
1022.02 1022.61 1022.98 1023.00 1022.61 1021.80 1020.65 1019.26 1017.80 1016.45 1015.39 1014.72 1014.49 1014.68 1015.21 1015.94 1016.72 1017.41 1017.88 1018.09 1018.02 1017.71 1017.23 1016.65 1016.06 1015.50 1014.99 1014.54 1014.11 1013.67 1013.19 1012.64 1012.03 1011.38 1010.72 1010.09 1009.52 1009.04 1008.66 1008.37 1008.18 1008.05 1007.99 1007.99 1008.05 1008.19 1008.43 1008.76 1009.18
1022.14 1022.62 1022.84 1022.72 1022.22 1021.33 1020.15 1018.77 1017.38 1016.14 1015.19 1014.64 1014.52 1014.80 1015.39 1016.17 1016.98 1017.68 1018.18 1018.40 1018.35 1018.05 1017.57 1017.00 1016.39 1015.81 1015.28 1014.79 1014.34 1013.87 1013.38 1012.83 1012.21 1011.56 1010.89 1010.24 1009.62 1009.07 1008.60 1008.21 1007.89 1007.64 1007.46 1007.34 1007.31 1007.37 1007.54 1007.82 1008.21
1022.01 1022.30 1022.34 1022.05 1021.42 1020.47 1019.28 1017.99 1016.72 1015.64 1014.87 1014.48 1014.50 1014.89 1015.55 1016.35 1017.16 1017.85 1018.32 1018.53 1018.46 1018.17 1017.70 1017.14 1016.55 1015.97 1015.45 1014.97 1014.52 1014.07 1013.58 1013.05 1012.45 1011.81 1011.14 1010.47 1009.82 1009.20 1008.65 1008.16 1007.72 1007.35 1007.05 1006.83 1006.69 1006.66 1006.75 1006.97 1007.30
Thickness
5694 5696 5696 5690 5674 5659 5663 5674 5681 5686 5690 5696 5699 5699 5699 5699 5700 5703 5718 5726 5729 5731 5733 5734 5735 5736 5736 5737 5737 5736 5736 5736 5736 5735 5735 5734 5734 5733 5733 5733 5733 5732 5732 5731 5730 5729 5728 5727 5726
5686 5688 5683 5672 5657 5649 5659 5670 5674 5681 5687 5690 5693 5694 5693 5695 5702 5706 5712 5719 5723 5725 5728 5729 5730 5731 5732 5732 5732 5732 5732 5732 5732 5731 5731 5730 5730 5729 5729 5729 5729 5728 5727 5727 5726 5725 5724 5723 5722
5679 5677 5666 5655 5648 5649 5660 5668 5670 5676 5680 5682 5682 5685 5686 5690 5695 5700 5706 5712 5717 5719 5721 5722 5724 5725 5726 5727 5727 5727 5727 5727 5726 5726 5726 5726 5725 5725 5724 5724 5724 5724 5723 5722 5722 5721 5720 5719 5718
5667 5660 5651 5643 5645 5652 5658 5661 5664 5665 5670 5672 5672 5673 5679 5687 5690 5695 5701 5705 5708 5711 5713 5715 5717 5719 5720 5721 5721 5722 5722 5722 5721 5721 5721 5721 5721 5720 5720 5719 5719 5719 5718 5718 5717 5716 5715 5714 5713
5654 5645 5637 5632 5639 5648 5650 5654 5656 5657 5658 5660 5661 5663 5670 5680 5685 5690 5693 5697 5700 5703 5706 5708 5710 5712 5713 5714 5715 5716 5716 5716 5716 5716 5716 5716 5715 5715 5715 5714 5714 5714 5713 5713 5712 5711 5710 5709 5708
5636 5631 5623 5626 5634 5640 5642 5645 5647 5647 5648 5650 5652 5654 5662 5672 5676 5680 5684 5687 5691 5694 5697 5699 5702 5704 5706 5707 5708 5709 5710 5710 5710 5710 5710 5710 5710 5710 5709 5709 5709 5708 5708 5708 5707 5706 5705 5704 5702
5623 5617 5617 5620 5622 5627 5636 5637 5637 5636 5637 5640 5644 5644 5653 5662 5666 5670 5674 5677 5680 5684 5687 5690 5693 5695 5697 5699 5701 5701 5702 5703 5704 5704 5704 5704 5703 5703 5703 5703 5703 5703 5702 5702 5701 5700 5699 5698 5697
5615 5607 5607 5606 5611 5619 5628 5628 5629 5628 5630 5634 5636 5635 5641 5651 5656 5659 5663 5666 5670 5673 5677 5680 5683 5686 5688 5690 5692 5693 5694 5694 5696 5696 5696 5697 5697 5697 5696 5697 5697 5697 5697 5696 5696 5695 5693 5692 5691
5607 5596 5596 5600 5603 5611 5616 5615 5618 5621 5620 5623 5626 5630 5637 5641 5644 5647 5650 5654 5658 5662 5666 5670 5673 5676 5679 5681 5682 5684 5685 5685 5686 5687 5688 5688 5689 5689 5689 5690 5691 5690 5690 5689 5689 5688 5687 5686 5684
5593 5586 5593 5597 5597 5599 5601 5603 5605 5606 5607 5610 5615 5622 5627 5629 5632 5635 5639 5643 5647 5652 5655 5659 5662 5665 5668 5671 5673 5674 5676 5676 5677 5678 5679 5680 5681 5681 5682 5683 5683 5683 5683 5682 5682 5681 5680 5678 5677
5584 5582 5587 5588 5589 5590 5590 5591 5593 5593 5595 5600 5604 5609 5614 5617 5620 5624 5628 5633 5637 5640 5645 5648 5652 5654 5657 5660 5663 5664 5666 5666 5668 5669 5670 5671 5672 5673 5673 5674 5675 5675 5675 5675 5674 5672 5671 5670 5669
5574 5575 5578 5579 5580 5579 5579 5580 5579 5583 5589 5595 5597 5600 5602 5605 5609 5613 5619 5623 5625 5628 5632 5637 5641 5643 5646 5649 5651 5654 5655 5657 5658 5659 5662 5662 5663 5664 5664 5666 5666 5667 5667 5666 5665 5664 5663 5662 5661
5566 5567 5570 5569 5569 5568 5569 5568 5568 5574 5580 5584 5587 5589 5591 5595 5599 5603 5607 5610 5614 5618 5622 5626 5630 5633 5635 5638 5641 5644 5645 5647 5648 5650 5652 5654 5654 5655 5656 5657 5657 5658 5658 5657 5656 5655 5654 5653 5653
5559 5558 5559 5559 5559 5560 5559 5560 5559 5567 5571 5574 5576 5578 5582 5585 5589 5592 5596 5600 5604 5608 5612 5616 5619 5623 5625 5628 5630 5633 5636 5637 5639 5640 5641 5644 5645 5646 5647 5647 5648 5649 5648 5649 5648 5647 5646 5645 5644
5553 5549 5550 5551 5551 5550 5550 5552 5554 5559 5561 5564 5566 5569 5572 5575 5578 5582 5586 5591 5595 5599 5602 5606 5609 5612 5614 5617 5620 5622 5625 5627 5629 5630 5632 5635 5636 5637 5637 5637 5638 5639 5639 5639 5639 5638 5637 5636 5635
5544 5539 5538 5545 5543 5542 5539 5543 5553 5551 5552 5555 5557 5559 5562 5566 5569 5572 5576 5581 5586 5589 5593 5596 5599 5602 5605 5607 5609 5611 5613 5617 5620 5621 5623 5625 5626 5627 5628 5627 5627 5628 5629 5629 5629 5629 5628 5627 5626
5528 5525 5528 5534 5537 5535 5531 5534 5543 5543 5543 5546 5548 5550 5553 5557 5560 5563 5566 5571 5575 5579 5582 5584 5588 5592 5595 5597 5599 5601 5603 5606 5609 5611 5613 5615 5616 5618 5618 5618 5618 5618 5618 5619 5620 5620 5621 5620 5618
5523 5518 5521 5524 5529 5527 5523 5527 5535 5536 5535 5536 5537 5539 5543 5548 5552 5555 5557 5561 5565 5569 5571 5574 5577 5581 5584 5587 5589 5591 5593 5595 5598 5601 5603 5605 5606 5607 5608 5609 5609 5609 5609 5610 5610 5609 5612 5612 5611
5518 5513 5513 5520 5523 5522 5520 5524 5530 5530 5528 5528 5530 5530 5534 5540 5544 5546 5548 5551 5555 5559 5561 5563 5566 5570 5574 5576 5579 5581 5583 5586 5589 5591 5593 5595 5596 5597 5599 5600 5601 5601 5602 5603 5603 5601 5602 5602 5603
5512 5510 5509 5516 5518 5519 5515 5519 5525 5526 5525 5523 5523 5523 5526 5532 5536 5539 5540 5542 5544 5547 5550 5552 5555 5560 5564 5566 5568 5570 5573 5576 5578 5581 5583 5584 5586 5587 5589 5590 5592 5593 5594 5595 5595 5595 5594 5593 5595
5509 5506 5506 5508 5510 5510 5507 5517 5522 5523 5520 5520 5518 5518 5520 5523 5526 5529 5532 5534 5535 5537 5539 5543 5545 5550 5552 5554 5557 5560 5562 5564 5566 5570 5572 5574 5576 5577 5578 5581 5582 5583 5585 5587 5588 5589 5588 5586 5586
5504 5506 5504 5504 5496 5494 5496 5499 5515 5514 5514 5515 5512 5510 5511 5515 5518 5521 5524 5526 5527 5528 5530 5532 5535 5538 5541 5543 5547 5551 5553 5554 5557 5560 5562 5564 5565 5567 5569 5572 5574 5575 5577 5579 5580 5581 5581 5581 5580
5497 5498 5496 5494 5487 5482 5485 5481 5504 5504 5506 5507 5505 5504 5505 5507 5509 5512 5515 5517 5518 5518 5520 5521 5525 5528 5530 5533 5537 5540 5543 5544 5547 5549 5552 5554 5556 5558 5560 5563 5565 5567 5569 5571 5572 5572 5573 5575 5575
5490 5489 5485 5476 5472 5475 5482 5477 5491 5491 5495 5498 5498 5498 5497 5499 5501 5503 5505 5508 5508 5509 5510 5511 5513 5516 5519 5523 5527 5530 5532 5534 5537 5539 5542 5545 5547 5549 5551 5554 5556 5558 5560 5561 5564 5565 5566 5567 5569
5482 5477 5470 5470 5461 5471 5476 5473 5484 5489 5488 5486 5485 5485 5485 5487 5489 5492 5494 5496 5497 5498 5500 5502 5503 5506 5510 5513 5516 5521 5523 5525 5528 5530 5532 5535 5537 5540 5543 5545 5548 5551 5552 5553 5555 5557 5558 5560 5561
5471 5470 5464 5462 5459 5465 5468 5470 5481 5484 5481 5479 5476 5475 5476 5478 5479 5481 5483 5483 5485 5488 5490 5492 5495 5498 5501 5503 5507 5510 5513 5515 5517 5520 5523 5526 5529 5531 5534 5537 5540 5542 5544 5545 5547 5548 5550 5551 5553
5464 5457 5455 5445 5436 5441 5455 5459 5472 5480 5476 5473 5470 5468 5468 5468 5470 5471 5473 5474 5475 5477 5480 5482 5486 5489 5492 5494 5497 5500 5502 5505 5507 5510 5513 5516 5519 5522 5525 5528 5530 5533 5535 5536 5538 5540 5542 5543 5545
5458 5449 5438 5434 5439 5445 5451 5453 5463 5468 5465 5462 5460 5458 5459 5460 5461 5462 5463 5465 5466 5469 5471 5473 5476 5480 5483 5485 5487 5490 5492 5495 5498 5500 5503 5506 5510 5512 5516 5519 5521 5524 5526 5528 5529 5531 5532 5534 5536
5444 5440 5431 5421 5424 5431 5436 5457 5461 5457 5454 5450 5449 5449 5449 5451 5452 5453 5454 5456 5456 5458 5460 5463 5466 5470 5474 5476 5478 5480 5483 5485 5488 5490 5493 5496 5500 5503 5506 5509 5512 5514 5517 5519 5521 5522 5524 5526 5528
5437 5432 5424 5424 5419 5409 5417 5444 5455 5449 5444 5441 5440 5441 5442 5443 5444 5444 5446 5447 5447 5448 5450 5453 5457 5461 5464 5466 5469 5471 5473 5476 5479 5481 5483 5486 5490 5493 5496 5500 5503 5506 5508 5510 5512 5514 5516 5518 5520